CW1852 Weather Reports


Display with metric or nautical units.
time (UTC)temp
F
wind
direction
speed
MPH
gust
MPH
rain 1hr
in
rain 24hr
in
rain mn
in
humidity
%
barometer
mb
20260510220203 53 165 4.0 6.0 0.00 0.35 0.10 94 1011.0
20260510215203 54 156 3.0 5.0 0.00 0.36 0.10 94 1010.9
20260510214224 53 187 2.0 5.0 0.00 0.36 0.10 93 1011.3
20260510213203 53 237 1.0 7.0 0.00 0.36 0.10 91 1011.5
20260510212203 54 272 2.0 9.0 0.00 0.36 0.10 91 1011.4
20260510211202 54 243 4.0 9.0 0.00 0.36 0.10 90 1011.4
20260510210203 55 182 2.0 6.0 0.00 0.37 0.10 90 1011.0
20260510205202 55 181 1.0 8.0 0.00 0.37 0.10 91 1010.8
20260510204203 54 239 2.0 7.0 0.00 0.38 0.10 90 1010.8
20260510203202 54 254 2.0 4.0 0.00 0.38 0.10 90 1010.8
20260510202203 54 258 4.0 8.0 0.00 0.40 0.10 90 1010.9
20260510201203 54 174 1.0 2.0 0.00 0.40 0.10 90 1010.9
20260510200203 54 172 0.0 3.0 0.00 0.41 0.10 90 1010.4
20260510195203 54 184 1.0 5.0 0.00 0.42 0.10 89 1010.7
20260510194203 54 148 3.0 6.0 0.00 0.42 0.10 88 1010.7
20260510193203 56 161 2.0 8.0 0.00 0.43 0.10 87 1010.8
20260510192203 56 188 2.0 6.0 0.00 0.44 0.10 88 1010.8
20260510191224 56 189 3.0 6.0 0.00 0.44 0.10 88 1010.9
20260510190203 55 146 2.0 8.0 0.00 0.45 0.10 88 1011.1
20260510185203 56 180 4.0 8.0 0.00 0.46 0.10 88 1011.3
20260510184203 55 185 3.0 7.0 0.00 0.47 0.10 90 1011.4
20260510183203 54 166 2.0 9.0 0.00 0.48 0.10 89 1011.6
20260510182203 54 179 6.0 9.0 0.00 0.49 0.10 88 1011.7
20260510181202 55 150 4.0 7.0 0.00 0.51 0.10 87 1011.7
20260510180203 57 119 3.0 6.0 0.00 0.51 0.10 86 1011.6
20260510175224 56 143 3.0 8.0 0.00 0.51 0.10 88 1011.6
20260510174203 55 158 3.0 9.0 0.00 0.51 0.10 89 1011.7
20260510173203 55 166 5.0 9.0 0.00 0.51 0.10 87 1011.7
20260510172203 55 146 3.0 5.0 0.00 0.51 0.10 88 1011.8
20260510171202 54 163 3.0 6.0 0.00 0.51 0.10 90 1011.8
20260510170203 54 135 3.0 6.0 0.00 0.51 0.10 87 1011.9
20260510165202 55 214 3.0 10.0 0.00 0.51 0.10 90 1012.0
20260510164203 55 175 5.0 10.0 0.00 0.51 0.10 89 1011.9
20260510163202 55 195 4.0 9.0 0.00 0.51 0.10 88 1012.0
20260510162224 56 194 4.0 9.0 0.00 0.51 0.10 89 1012.0
20260510161203 56 226 3.0 10.0 0.00 0.51 0.10 89 1011.9
20260510160202 55 197 4.0 8.0 0.00 0.51 0.10 89 1012.0
20260510155203 55 205 3.0 7.0 0.00 0.51 0.10 90 1012.0
20260510154202 55 264 5.0 9.0 0.00 0.51 0.10 90 1012.2
20260510153203 55 234 3.0 8.0 0.00 0.51 0.10 91 1012.1
20260510152203 55 188 2.0 9.0 0.00 0.51 0.10 92 1012.2
20260510151203 55 206 3.0 8.0 0.00 0.51 0.10 93 1012.3
20260510150203 55 193 4.0 12.0 0.00 0.51 0.10 94 1012.1
20260510145203 55 234 3.0 8.0 0.00 0.51 0.10 95 1012.1
20260510144203 54 263 4.0 7.0 0.00 0.51 0.10 96 1012.1
20260510143203 52 191 4.0 10.0 0.00 0.51 0.10 96 1012.2
20260510142203 52 197 2.0 9.0 0.00 0.51 0.10 96 1012.4
20260510141203 51 222 2.0 8.0 0.00 0.51 0.10 96 1012.3
20260510140202 51 258 2.0 7.0 0.00 0.51 0.10 96 1012.4
20260510135203 50 270 2.0 10.0 0.00 0.51 0.10 96 1012.5
20260510134202 50 259 3.0 7.0 0.00 0.51 0.10 96 1012.4
20260510133203 49 255 3.0 8.0 0.00 0.51 0.10 96 1012.2
20260510132202 50 233 3.0 10.0 0.00 0.51 0.10 96 1012.3
20260510131203 50 208 4.0 9.0 0.00 0.51 0.10 96 1012.1
20260510130203 51 195 2.0 8.0 0.00 0.51 0.10 96 1012.1
20260510125202 50 245 3.0 7.0 0.00 0.51 0.10 97 1012.0
20260510124203 49 201 2.0 9.0 0.00 0.51 0.10 96 1012.0
20260510123223 49 251 2.0 8.0 0.00 0.51 0.10 96 1012.1
20260510122203 48 194 3.0 7.0 0.00 0.51 0.10 96 1012.1
20260510121203 48 213 4.0 8.0 0.00 0.51 0.10 96 1012.1
20260510120202 48 235 4.0 11.0 0.00 0.51 0.10 96 1012.1
20260510115203 49 196 5.0 12.0 0.00 0.51 0.10 96 1011.8
20260510114202 48 194 5.0 10.0 0.00 0.51 0.10 96 1011.2
20260510113203 48 181 4.0 11.0 0.00 0.51 0.10 96 1011.4
20260510112202 49 202 3.0 6.0 0.00 0.51 0.10 96 1011.4
20260510111203 49 200 4.0 6.0 0.00 0.51 0.10 96 1011.3
20260510110203 48 227 3.0 6.0 0.00 0.51 0.10 96 1011.1
20260510105203 48 253 1.0 3.0 0.00 0.51 0.10 96 1011.1
20260510104203 48 257 3.0 8.0 0.00 0.51 0.10 96 1011.3
20260510103224 48 249 2.0 6.0 0.00 0.51 0.10 96 1011.3
20260510102204 48 222 2.0 8.0 0.00 0.51 0.10 96 1011.1
20260510101202 48 217 3.0 11.0 0.00 0.51 0.10 96 1011.1
20260510100203 48 202 4.0 11.0 0.00 0.51 0.10 96 1011.0
20260510095203 48 221 4.0 12.0 0.00 0.51 0.10 96 1011.0
20260510094202 48 196 6.0 15.0 0.00 0.51 0.10 96 1010.9
20260510093224 48 195 6.0 15.0 0.00 0.51 0.10 96 1010.9
20260510092203 48 183 7.0 15.0 0.00 0.51 0.10 96 1010.5
20260510091202 48 186 4.0 8.0 0.00 0.51 0.10 96 1010.7
20260510090203 48 177 7.0 12.0 0.00 0.51 0.10 96 1010.8
20260510085202 48 160 7.0 16.0 0.00 0.51 0.10 96 1010.8
20260510084224 48 183 6.0 12.0 0.00 0.51 0.10 96 1010.8
20260510083224 48 158 6.0 13.0 0.00 0.51 0.10 96 1010.6
20260510082203 48 172 5.0 11.0 0.00 0.51 0.10 96 1010.4
20260510081203 48 164 4.0 11.0 0.00 0.51 0.10 96 1010.6
20260510080203 48 171 3.0 10.0 0.00 0.51 0.10 96 1010.6
20260510075202 48 156 3.0 8.0 0.09 0.51 0.10 96 1010.8
20260510074203 48 170 0.0 4.0 0.08 0.50 0.09 96 1010.9
20260510073203 47 170 1.0 6.0 0.08 0.50 0.09 96 1010.9
20260510072203 47 156 2.0 5.0 0.05 0.47 0.06 96 1011.0
20260510071224 47 102 2.0 4.0 0.02 0.44 0.03 96 1011.1
20260510070203 47 173 1.0 3.0 0.00 0.42 0.01 96 1011.1
20260510065202 47 154 2.0 5.0 0.00 0.42 0.01 95 1011.3
20260510064225 47 147 2.0 5.0 0.00 0.42 0.01 95 1011.4
20260510063203 47 136 2.0 7.0 0.00 0.42 0.01 95 1011.4
20260510062202 47 159 3.0 7.0 0.00 0.42 0.01 95 1011.5
20260510061203 47 174 4.0 9.0 0.00 0.42 0.01 96 1011.6
20260510060202 47 179 3.0 8.0 0.00 0.42 0.01 96 1011.7
20260510055203 47 159 4.0 9.0 0.00 0.42 0.01 96 1011.9
20260510054202 47 174 5.0 9.0 0.00 0.42 0.01 96 1012.0
20260510053203 47 156 4.0 10.0 0.00 0.42 0.01 95 1012.1
20260510052203 47 164 5.0 9.0 0.00 0.42 0.01 96 1012.1
20260510051224 47 146 4.0 8.0 0.00 0.42 0.01 96 1012.2
20260510050204 48 166 3.0 9.0 0.00 0.42 0.01 95 1012.3
20260510045202 48 171 6.0 12.0 0.01 0.42 0.01 96 1012.4
20260510044203 49 174 6.0 11.0 0.00 0.41 0.00 96 1012.4
20260510043203 49 173 7.0 10.0 0.00 0.41 0.00 96 1012.6
20260510042203 49 169 4.0 12.0 0.00 0.41 0.00 96 1012.5
20260510041203 48 191 6.0 13.0 0.00 0.41 0.00 96 1012.6
20260510040203 48 177 6.0 11.0 0.00 0.41 0.00 96 1012.7
20260510035203 48 172 7.0 15.0 0.00 0.41 0.41 96 1012.7
20260510034202 48 186 7.0 14.0 0.00 0.41 0.41 96 1012.7
20260510033224 49 192 7.0 12.0 0.00 0.41 0.41 96 1012.9
20260510032203 49 189 5.0 13.0 0.00 0.41 0.41 96 1013.0
20260510031202 48 247 3.0 7.0 0.00 0.41 0.41 96 1012.6
20260510030203 48 268 2.0 7.0 0.00 0.41 0.41 96 1012.6
20260510025202 48 224 2.0 8.0 0.04 0.41 0.41 96 1012.7
20260510024224 48 208 3.0 8.0 0.04 0.41 0.41 96 1012.6
20260510023203 48 240 3.0 8.0 0.03 0.40 0.40 96 1012.6
20260510022203 48 195 2.0 10.0 0.02 0.39 0.39 96 1012.6
20260510021204 48 215 2.0 9.0 0.01 0.38 0.38 96 1012.6
20260510020202 48 197 4.0 11.0 0.00 0.37 0.37 95 1012.7
20260510015224 48 195 7.0 13.0 0.06 0.36 0.36 96 1012.6
20260510014224 48 195 3.0 12.0 0.05 0.35 0.35 95 1012.5
20260510013224 48 178 6.0 12.0 0.03 0.33 0.33 95 1012.6
20260510012203 47 171 7.0 15.0 0.02 0.32 0.32 96 1012.5
20260510011203 47 176 7.0 14.0 0.01 0.31 0.31 95 1012.4
20260510010223 47 152 4.0 18.0 0.00 0.30 0.30 95 1012.5
20260510005203 46 72 3.0 7.0 0.07 0.29 0.29 95 1012.4
20260510004203 45 87 1.0 5.0 0.06 0.28 0.28 95 1012.6
20260510003203 45 84 4.0 8.0 0.05 0.27 0.27 95 1012.5
20260510002203 45 91 3.0 7.0 0.03 0.25 0.25 95 1012.6
20260510001202 45 86 3.0 6.0 0.01 0.23 0.23 95 1012.6
20260510000204 45 104 3.0 5.0 0.00 0.22 0.22 95 1012.6
20260509235224 44 105 3.0 10.0 0.03 0.21 0.21 95 1012.7
20260509234224 44 88 3.0 9.0 0.03 0.21 0.21 95 1012.6
20260509233203 44 92 3.0 6.0 0.02 0.20 0.20 95 1012.8
20260509232203 44 104 3.0 6.0 0.02 0.20 0.20 95 1013.2
20260509231202 44 115 4.0 8.0 0.01 0.19 0.19 95 1013.3
20260509230224 44 108 3.0 7.0 0.00 0.18 0.18 95 1013.1
20260509225203 44 89 3.0 8.0 0.03 0.18 0.18 95 1012.9
20260509224202 44 106 3.0 7.0 0.02 0.17 0.17 94 1013.1
20260509223203 44 92 3.0 6.0 0.02 0.17 0.17 94 1013.3
20260509222202 44 105 4.0 7.0 0.01 0.16 0.16 94 1013.4
20260509221203 44 81 4.0 12.0 0.01 0.16 0.16 94 1013.6